Happy Valentine's Day! 

Flight Track Log - Related Links

Times and Time Zones

All times are in EDT time to prevent confusion due to time zone crossing. See the UAL4295 flight status page for this flight to view local times or setup timezone preferences in your user account.


Time Position Orientation Groundspeed Altitude Reporting Facility
EDT Latitude Longitude Course Direction KTS MPH feet Rate Location/Type
Sat 11:55:19 AM 35.3331 -82.4883 73° East 223 257 6,600  Level Atlanta Center
Sat 11:56:00 AM 35.5110 -82.2119 76° East  Level FlightAware Approximate
Sat 11:56:19 AM 35.3486 -82.4067 77° East 198 228 9,000  Level Atlanta Center
Sat 11:57:00 AM 35.5332 -82.1006 76° East  Level FlightAware Approximate
Sat 11:57:19 AM 35.3408 -82.3075 95° East 249 287 10,000  Level Atlanta Center
Sat 11:58:00 AM 35.5629 -81.9919 71° East  Level FlightAware Approximate
Sat 11:58:19 AM 35.3161 -82.1883 104° East 328 377 11,300  Level Atlanta Center
Sat 11:59:00 AM 35.5918 -81.8828 73° East  Level FlightAware Approximate
Sat 11:59:19 AM 35.3186 -82.0736 88° East 352 405 13,700  Level Atlanta Center
Sat 12:00:00 PM 35.6193 -81.7731 73° East  Level FlightAware Approximate
Sat 12:00:19 PM 35.3586 -81.9608 66° East 347 399 15,600  Level Atlanta Center
Sat 12:01:19 PM 35.4022 -81.8425 66° East 363 418 17,200 1,500 Climbing Atlanta Center
Sat 12:02:19 PM 35.4439 -81.7214 67° East 372 428 18,600 1,450 Climbing Atlanta Center
Sat 12:03:19 PM 35.4875 -81.6031 66° East 387 445 20,100 1,550 Climbing Atlanta Center
Sat 12:04:19 PM 35.5308 -81.4767 67° East 382 440 21,700 1,350 Climbing Atlanta Center
Sat 12:05:19 PM 35.5683 -81.3708 66° East 382 440 22,800 800 Climbing Atlanta Center
Sat 12:06:19 PM 35.6169 -81.2158 69° East 398 458 23,300 850 Climbing Atlanta Center
Sat 12:07:19 PM 35.6681 -81.0864 64° Northeast 427 491 24,500 1,200 Climbing Atlanta Center
Sat 12:08:19 PM 35.7361 -80.9661 55° Northeast 427 491 25,700 1,250 Climbing Atlanta Center
Sat 12:09:19 PM 35.8061 -80.8508 53° Northeast 425 489 27,000 1,250 Climbing Atlanta Center
Sat 12:10:19 PM 35.8783 -80.7353 52° Northeast 419 482 28,200 1,200 Climbing Atlanta Center
Sat 12:11:19 PM 35.9458 -80.6144 55° Northeast 424 488 29,400 1,200 Climbing Atlanta Center
Sat 12:12:19 PM 36.0133 -80.4936 55° Northeast 424 488 30,600 1,200 Climbing Atlanta Center
Sat 12:13:19 PM 36.0808 -80.3775 54° Northeast 418 481 31,800 1,385 Climbing Atlanta Center
Sat 12:14:55 PM 36.1928 -80.1939 53° Northeast 416 479 34,200 1,239 Climbing Washington Center
Sat 12:15:54 PM 36.2597 -80.0819 53° Northeast 416 479 35,000 403 Climbing Washington Center
Sat 12:16:54 PM 36.3197 -79.9772 55° Northeast 410 472 35,000  Level Washington Center
Sat 12:17:55 PM 36.3933 -79.8497 54° Northeast 432 497 35,000  Level Washington Center
Sat 12:18:53 PM 36.4831 -79.7281 47° Northeast 449 517 35,000  Level Washington Center
Sat 12:19:54 PM 36.5836 -79.5986 46° Northeast 471 542 35,000  Level Washington Center
Sat 12:20:55 PM 36.6772 -79.4767 46° Northeast 476 548 35,000  Level Washington Center
Sat 12:21:53 PM 36.7708 -79.3594 45° Northeast 476 548 35,000  Level Washington Center
Sat 12:22:53 PM 36.8533 -79.2492 47° Northeast 481 554 35,000  Level Washington Center
Sat 12:23:54 PM 36.9467 -79.1289 46° Northeast 481 554 35,000  Level Washington Center
Sat 12:24:54 PM 37.0400 -79.0083 46° Northeast 481 554 35,000  Level Washington Center
Sat 12:25:55 PM 37.1397 -78.8747 47° Northeast 476 548 35,000  Level Washington Center
Sat 12:26:55 PM 37.2325 -78.7533 46° Northeast 482 555 35,000  Level Washington Center
Sat 12:27:53 PM 37.3256 -78.6319 46° Northeast 482 555 35,000  Level Washington Center
Sat 12:28:53 PM 37.4139 -78.5153 46° Northeast 475 547 35,000  Level Washington Center
Sat 12:29:54 PM 37.4978 -78.4058 46° Northeast 475 547 35,000  Level Washington Center
Sat 12:30:54 PM 37.5883 -78.2861 46° Northeast 470 541 35,000  Level Washington Center
Sat 12:31:55 PM 37.6850 -78.1531 47° Northeast 465 535 35,000  Level Washington Center
Sat 12:32:53 PM 37.7772 -78.0378 45° Northeast 465 535 35,000  Level Washington Center
Sat 12:33:53 PM 37.8711 -77.9200 45° Northeast 465 535 35,000  Level Washington Center
Sat 12:34:55 PM 37.9631 -77.7989 46° Northeast 470 541 35,000  Level Washington Center
Sat 12:35:55 PM 38.0572 -77.6778 45° Northeast 470 541 35,000  Level Washington Center
Sat 12:36:53 PM 38.1486 -77.5614 45° Northeast 470 541 35,000  Level Washington Center
Sat 12:37:54 PM 38.2381 -77.4447 46° Northeast 470 541 35,000  Level Washington Center
Sat 12:38:54 PM 38.3297 -77.3253 46° Northeast 470 541 35,000  Level Washington Center
Sat 12:39:55 PM 38.4208 -77.2083 45° Northeast 470 541 35,000  Level Washington Center
Sat 12:40:53 PM 38.5142 -77.0883 45° Northeast 470 541 35,000  Level Washington Center
Sat 12:41:54 PM 38.6053 -76.9706 45° Northeast 470 541 35,000  Level Washington Center
Sat 12:42:55 PM 38.6942 -76.8497 47° Northeast 470 541 35,000  Level Washington Center
Sat 12:43:55 PM 38.7850 -76.7342 45° Northeast 470 541 35,000  Level Washington Center
Sat 12:44:54 PM 38.8756 -76.6156 46° Northeast 465 535 35,000 -101 Level Washington Center
Sat 12:45:54 PM 38.9664 -76.4939 46° Northeast 465 535 34,800 -1,289 Descending Washington Center
Sat 12:46:55 PM 39.0567 -76.3722 46° Northeast 465 535 32,400 -2,471 Descending Washington Center
Sat 12:47:53 PM 39.1469 -76.2528 46° Northeast 465 535 29,900 -2,593 Descending Washington Center
Sat 12:48:53 PM 39.2331 -76.1383 46° Northeast 470 541 27,300 -1,426 Descending Washington Center
Sat 12:49:55 PM 39.3314 -76.0236 42° Northeast 476 548 27,000 -150 Descending Washington Center
Sat 12:50:53 PM 39.4297 -75.9058 43° Northeast 476 548 27,000 -252 Level Washington Center
Sat 12:51:54 PM 39.5281 -75.7881 43° Northeast 476 548 26,500 -1,475 Descending Washington Center
Sat 12:52:55 PM 39.6281 -75.6697 42° Northeast 476 548 24,000 -2,471 Descending Washington Center
Sat 12:53:53 PM 39.7219 -75.5592 42° Northeast 471 542 21,600 -2,370 Descending Washington Center
Sat 12:54:54 PM 39.8114 -75.4483 44° Northeast 454 522 19,300 -2,262 Descending Washington Center
Sat 12:55:55 PM 39.9008 -75.3428 42° Northeast 443 510 17,000 -2,281 Descending Washington Center
Sat 12:56:55 PM 39.9839 -75.2394 44° Northeast 424 488 14,700 -2,237 Descending Washington Center
Sat 12:57:53 PM 40.0689 -75.1361 43° Northeast 412 474 12,600 -1,916 Descending Washington Center
Sat 12:58:54 PM 40.1478 -75.0378 44° Northeast 401 461 10,900 -1,423 Descending Washington Center
Sat 12:59:30 PM 40.2000 -74.9833 39° Northeast 342 394 10,300 -1,467 Descending New York TRACON
Sat 01:00:24 PM 40.2500 -74.9000 52° Northeast 315 362 8,700 -1,211 Descending New York TRACON
Sat 01:01:24 PM 40.3167 -74.8333 37° Northeast 272 313 8,000 -650 Descending New York TRACON
Sat 01:02:24 PM 40.3500 -74.7500 62° Northeast 257 296 7,400 -800 Descending New York TRACON
Sat 01:03:24 PM 40.3667 -74.6667 75° East 236 272 6,400 -700 Descending New York TRACON
Sat 01:04:24 PM 40.3667 -74.5833 90° East 201 231 6,000 -650 Descending New York TRACON
Sat 01:05:24 PM 40.3667 -74.5167 90° East 187 215 5,100 -500 Descending New York TRACON
Sat 01:06:24 PM 40.3667 -74.4500 90° East 195 224 5,000 -250 Descending New York TRACON
Sat 01:07:24 PM 40.3667 -74.3833 90° East 181 208 4,600 -500 Descending New York TRACON
Sat 01:08:24 PM 40.3667 -74.3167 90° East 177 204 4,000 -300 Descending New York TRACON
Sat 01:09:24 PM 40.4000 -74.2833 37° Northeast 195 224 4,000 -421 Level New York TRACON
Sat 01:10:18 PM 40.4500 -74.2833 360° North 188 216 3,200 -632 Descending New York TRACON
Sat 01:11:18 PM 40.5000 -74.3000 346° North 177 204 2,800 -600 Descending New York TRACON
Sat 01:12:18 PM 40.5333 -74.2667 37° Northeast 177 204 2,000 -800 Descending New York TRACON

Login

Don't have an account? Register now (free) for customized features, flight alerts, and more!